Location: El Mouella
(16.4949°N, 9.1594°W)
Time: 23:52:31
(UTC+00:00)

H-2A R/B - Visible Passes

Search period start: 13 June 2021 00:00
Search period end: 23 June 2021 00:00
Orbit: 734 x 836 km, 98.2° (Epoch: 13 June)

Date Brightness Start Highest point End Pass type
(mag) Time Alt. Az. Time Alt. Az. Time Alt. Az.
13 Jun 3.6 19:56:24 10° SSW 20:01:02 35° W 20:05:48 10° NW visible
14 Jun 2.2 19:24:55 10° S 19:30:03 82° WSW 19:35:21 10° NNW visible
15 Jun 4.8 20:36:27 10° WSW 20:38:35 12° W 20:40:44 10° WNW visible
16 Jun 4.0 20:03:03 10° SSW 20:07:30 29° W 20:12:04 10° NW visible
17 Jun 2.5 19:31:22 10° S 19:36:30 68° WSW 19:41:48 10° NNW visible
18 Jun 5.2 20:44:42 10° W 20:45:04 10° W 20:45:25 10° W visible
19 Jun 4.2 20:09:47 10° SSW 20:13:58 25° W 20:18:16 10° NW visible
20 Jun 2.8 19:37:51 10° S 19:42:57 56° W 19:48:13 10° NNW visible
22 Jun 4.5 20:16:36 10° SW 20:20:28 21° W 20:24:23 10° NW visible
